Location: Newark
(29.7944°N, 96.1047°W)
Time: 18:09:10
(UTC+00:00)

Envisat - Visible Passes

Search period start: 18 August 2019 00:00
Search period end: 28 August 2019 00:00
Orbit: 764 x 766 km, 98.1° (Epoch: 17 August)

Date Brightness Start Highest point End Pass type
(mag) Time Alt. Az. Time Alt. Az. Time Alt. Az.
18 Aug 4.7 01:23:29 10° SSW 01:28:09 37° W 01:32:50 10° NNW visible
20 Aug 5.7 01:50:09 10° SW 01:53:46 20° W 01:57:24 10° NW visible
23 Aug 5.3 01:38:19 10° SSW 01:42:27 26° W 01:46:39 10° NW visible
25 Aug 6.0 02:05:46 10° WSW 02:08:08 13° W 02:10:30 10° WNW visible
26 Aug 4.9 01:26:37 10° SSW 01:31:10 33° W 01:35:44 10° NW visible
